Weather in Hvar

Croatia     43°10′08″N   16°26′55″E
В апреле 2022 года жителям России запретили посещать сайт meteo.paraplan.net по решению Генеральной прокуратуры. Аудитория сайта уменьшилась в 10 раз. Владельцы сайта не видят смысла в поддержке погодного сервера в таких условиях. Сайт будет закрыт в октябре.
temp.,
°C
wind,
m/s
gust,
m/s
humid.,
%
clouds,
%
prec.,
mm/h
press.,
hPa
HPBL,
m
3 october, mon
mon323:00+19ene11740 0.0 101897
02:00+18e11715 0.0 1017107
05:00+18nne226953 0.0 1016111
08:00+19nnw347291 0.0 1017259
11:00+21nne34615 0.0 1017465
14:00+23nne57460 0.0 1017564
17:00+22nne58460 0.0 1017472
20:00+20ne810470 0.0 1018448
4 october, tue
tue423:00+18ne68520 0.0 1019285
02:00+17ne45580 0.0 1019172
05:00+16ne44580 0.0 1019176
08:00+16ne32584 0.0 1020164
11:00+19n114437 0.0 1021362
14:00+20w22410 0.0 1021514
17:00+20wnw44520 0.0 1020372
20:00+19nw45665 0.0 1022317
5 october, wed
wed523:00+18n12680 0.0 1023174
02:00+17e33580 0.0 1024162
05:00+17ene33570 0.0 1024155
08:00+16ene22545 0.0 1024137
11:00+19sse01465 0.0 1025327
14:00+19sse11529 0.0 1025412
17:00+20sw11548 0.0 1024407
20:00+18nw005967 0.0 1026187
6 october, thu
thu623:00+18nne226161 0.0 1026133
02:00+18nnw226033 0.0 1026140
05:00+17nnw236342 0.0 1026187
08:00+18n2260100 0.0 1025150
11:00+20nw2354100 0.0 1026344
14:00+21wnw4358100 0.0 1025411
17:00+20wnw557263 0.0 1025301
20:00+19nw3380100 0.0 1025148
7 october, fri
fri723:00+19nnw3376100 0.0 1025117
02:00+19ene1165100 0.0 102421
05:00+19e2258100 0.0 102364
08:00+19ne1153100 0.0 102379
11:00+21nw0149100 0.0 1024167
14:00+21sw2147100 0.0 1022287
17:00+21w2257100 0.0 1021112
20:00+19nnw2265100 0.0 102150